#datint,netname,site,siteID,timestamp,airt_abovecanopy_avg,airt_avg,airt_belowcanopy_avg,dpt_f,rh,soil_vwc,soil_f,Solar_rad,winds_mph_avg,windd_deg,winds_mph_max,leafwetns,tot_10rain_mm,tot_60rain_mm,tot_dayrain_mm,leaft_1,budt_1
10min,FGNet,alpine,42.04,10JAN2021:00:00:00,28.1,27.8,27.6,20.0,71,17.98,29.7104,0,1.7,219,3.3,0,0.00,0.00,0.00,25.3112,26.3498
10min,FGNet,alpine,42.04,10JAN2021:00:10:00,27.9,27.6,27.2,19.6,71,17.98,29.7194,0,0.2,287.5,1.5,0,0.00,0.00,0.00,25.619,26.843
10min,FGNet,alpine,42.04,10JAN2021:00:20:00,27.7,27.5,27.1,19.1,70,18.01,29.696,0,0.8,225.5,2.6,0,0.00,0.00,0.00,26.2112,27.158
10min,FGNet,alpine,42.04,10JAN2021:00:30:00,27.7,27.6,27.3,18.3,68,17.99,29.795,0,2.6,327.9,3.7,0,0.00,0.00,0.00,26.5478,27.3164
10min,FGNet,alpine,42.04,10JAN2021:00:40:00,27.7,27.8,27.5,18.9,69,18,29.966,0,2.1,148.5,3.0,0,0.00,0.00,0.00,26.6468,27.356
10min,FGNet,alpine,42.04,10JAN2021:00:50:00,27.8,27.8,27.6,19.5,71,17.96,29.7284,0,2.4,52.07,3.3,0,0.00,0.00,0.00,26.8826,27.4748
10min,FGNet,alpine,42.04,10JAN2021:01:00:00,28.0,28.1,27.9,19.8,71,17.94,29.804,0,2.7,75.17,4.2,0,0.00,0.00,0.00,26.7044,27.3956
10min,FGNet,alpine,42.04,10JAN2021:01:10:00,28.0,27.9,27.8,20.0,71,17.94,29.7356,0,1.5,335.4,2.4,0,0.00,0.00,0.00,26.6846,27.4154
10min,FGNet,alpine,42.04,10JAN2021:01:20:00,27.9,27.7,27.5,20.1,72,17.96,29.7644,0,0.6,329.8,1.7,0,0.00,0.00,0.00,26.1716,26.9618
10min,FGNet,alpine,42.04,10JAN2021:01:30:00,27.8,27.4,27.2,20.0,72,17.96,29.7626,0,0.0,318,0.0,0,0.00,0.00,0.00,26.132,27.2372
10min,FGNet,alpine,42.04,10JAN2021:01:40:00,27.7,27.6,27.2,19.5,71,18,29.7536,0,0.7,310.9,1.9,0,0.00,0.00,0.00,26.2112,27.041
10min,FGNet,alpine,42.04,10JAN2021:01:50:00,27.7,27.5,27.3,19.4,71,17.96,29.7464,0,0.0,131.7,1.2,0,0.00,0.00,0.00,25.934,26.9312
10min,FGNet,alpine,42.04,10JAN2021:02:00:00,27.5,27.2,27.0,19.5,72,17.95,29.867,0,0.2,218.7,1.7,0,0.00,0.00,0.00,25.6388,26.3984
10min,FGNet,alpine,42.04,10JAN2021:02:10:00,27.4,27.3,27.0,19.4,72,17.98,29.84,0,0.6,224.7,1.7,0,0.00,0.00,0.00,26.2508,26.825
10min,FGNet,alpine,42.04,10JAN2021:02:20:00,27.5,27.5,27.3,19.2,71,17.97,29.7734,0,0.3,137.9,1.5,0,0.00,0.00,0.00,26.3408,26.8628
10min,FGNet,alpine,42.04,10JAN2021:02:30:00,27.5,27.3,27.1,18.8,70,18.03,29.9606,0,0.1,214.7,1.4,0,0.00,0.00,0.00,26.0546,26.627
10min,FGNet,alpine,42.04,10JAN2021:02:40:00,27.4,27.3,27.0,19.0,70,18.01,29.7626,0,0.0,174.3,1.2,0,0.00,0.00,0.00,26.0546,26.6774
10min,FGNet,alpine,42.04,10JAN2021:02:50:00,27.4,27.1,26.9,18.9,70,18.04,29.7266,0,0.0,150,0.0,0,0.00,0.00,0.00,26.0744,26.726
10min,FGNet,alpine,42.04,10JAN2021:03:00:00,27.2,27.0,26.8,18.9,70,18.01,29.8994,0,0.0,150,0.0,0,0.00,0.00,0.00,26.1734,26.5298
10min,FGNet,alpine,42.04,10JAN2021:03:10:00,27.4,27.5,27.2,19.6,72,18.02,29.8364,0,0.8,185.2,2.3,0,0.00,0.00,0.00,26.7458,27.1004
10min,FGNet,alpine,42.04,10JAN2021:03:20:00,27.7,27.8,27.7,20.2,73,18,29.813,0,1.7,201.1,2.3,0,0.00,0.00,0.00,26.7548,27.2372
10min,FGNet,alpine,42.04,10JAN2021:03:30:00,27.7,27.5,27.4,20.3,73,18.01,29.804,0,0.4,239.1,1.5,0,0.00,0.00,0.00,26.33,26.636
10min,FGNet,alpine,42.04,10JAN2021:03:40:00,27.5,27.3,27.2,20.3,74,18.04,29.759,0,0.1,126.8,1.7,0,0.00,0.00,0.00,26.4884,27.158
10min,FGNet,alpine,42.04,10JAN2021:03:50:00,27.4,27.2,27.0,19.8,72,17.97,29.7626,0,0.3,268.1,1.7,0,0.00,0.00,0.00,25.421,26.2112
10min,FGNet,alpine,42.04,10JAN2021:04:00:00,27.3,26.8,26.7,19.8,73,17.98,29.8634,0,0.0,237.6,0.0,0,0.00,0.00,0.00,24.269,25.9736
10min,FGNet,alpine,42.04,10JAN2021:04:10:00,27.1,26.6,26.4,19.8,74,18,29.7176,0,0.4,210,2.1,0,0.00,0.00,0.00,24.647,25.223
10min,FGNet,alpine,42.04,10JAN2021:04:20:00,26.7,26.2,25.8,19.7,74,18.03,29.858,0,1.3,247.7,3.0,0,0.00,0.00,0.00,23.324,24.3896
10min,FGNet,alpine,42.04,10JAN2021:04:30:00,26.2,25.6,25.4,19.2,74,18.02,29.8706,0,0.2,261.1,1.5,0,0.00,0.00,0.00,23.3546,24.35
10min,FGNet,alpine,42.04,10JAN2021:04:40:00,26.0,26.0,25.7,19.2,75,17.99,29.759,0,0.0,178.7,1.2,0,0.00,0.00,0.00,23.8424,24.8666
10min,FGNet,alpine,42.04,10JAN2021:04:50:00,26.1,26.0,25.8,19.1,75,18,29.777,0,0.0,136.4,0.0,0,0.00,0.00,0.00,23.9144,24.7496
10min,FGNet,alpine,42.04,10JAN2021:05:00:00,26.0,25.7,25.5,19.2,75,18.01,29.7644,0,0.7,87.1,2.8,0,0.00,0.00,0.00,25.1492,25.8224
10min,FGNet,alpine,42.04,10JAN2021:05:10:00,26.3,26.4,26.1,19.7,76,17.99,29.7986,0,2.4,76.84,3.3,0,0.00,0.00,0.00,25.3292,25.9232
10min,FGNet,alpine,42.04,10JAN2021:05:20:00,26.4,26.3,26.1,19.9,76,18,29.8094,0,2.4,326.8,3.3,0,0.00,0.00,0.00,25.3688,25.9232
10min,FGNet,alpine,42.04,10JAN2021:05:30:00,26.2,26.2,26.0,19.7,76,18.02,29.7644,0,1.3,127.1,2.8,0,0.00,0.00,0.00,23.7218,24.7946
10min,FGNet,alpine,42.04,10JAN2021:05:40:00,26.0,25.7,25.6,19.6,76,17.97,29.8526,0,0.0,176.8,1.2,0,0.00,0.00,0.00,23.5022,24.953
10min,FGNet,alpine,42.04,10JAN2021:05:50:00,25.9,25.7,25.4,19.6,77,17.97,29.7914,0,1.3,57.96,2.3,0,0.00,0.00,0.00,23.7218,25.052
10min,FGNet,alpine,42.04,10JAN2021:06:00:00,26.0,25.9,25.7,19.7,77,17.97,29.8346,0,1.5,45.66,2.6,0,0.00,0.00,0.00,24.3194,25.232
10min,FGNet,alpine,42.04,10JAN2021:06:10:00,26.0,25.5,25.3,19.8,77,18.02,29.7896,0,1.6,222.3,2.8,0,0.00,0.00,0.00,24.0206,24.8558
10min,FGNet,alpine,42.04,10JAN2021:06:20:00,25.6,25.0,24.8,19.7,78,17.99,29.7644,0,0.7,231.5,2.6,0,0.00,0.00,0.00,23.3636,23.8406
10min,FGNet,alpine,42.04,10JAN2021:06:30:00,25.4,25.2,25.0,19.7,79,17.97,29.885,0,0.3,126.5,1.5,0,0.00,0.00,0.00,22.5644,24.2798
10min,FGNet,alpine,42.04,10JAN2021:06:40:00,25.1,24.5,24.5,19.4,78,17.99,29.759,0,0.0,99.7,0.0,0,0.00,0.00,0.00,20.1092,21.1586
10min,FGNet,alpine,42.04,10JAN2021:06:50:00,24.3,23.6,23.4,19.2,80,17.96,29.786,0,0.1,124.2,1.4,0,0.00,0.00,0.00,18.6458,20.8958
10min,FGNet,alpine,42.04,10JAN2021:07:00:00,23.7,22.8,22.7,18.9,82,17.97,29.8094,0,0.1,192.3,1.7,0,0.00,0.00,0.00,19.6628,21.38
10min,FGNet,alpine,42.04,10JAN2021:07:10:00,23.5,22.8,22.7,19.1,83,17.98,29.9336,0,0.9,132.4,2.3,0,0.00,0.00,0.00,17.114,19.6952
10min,FGNet,alpine,42.04,10JAN2021:07:20:00,22.5,21.6,21.3,18.4,84,18,30.0146,0,0.6,216.6,1.7,0,0.00,0.00,0.00,17.438,19.445
10min,FGNet,alpine,42.04,10JAN2021:07:30:00,22.3,22.0,21.8,18.3,84,17.96,29.7734,0,1.6,72.74,3.3,0,0.00,0.00,0.00,18.4478,19.7924
10min,FGNet,alpine,42.04,10JAN2021:07:40:00,22.0,21.0,20.8,17.8,84,17.97,29.7986,1,0.6,180.6,1.9,0,0.00,0.00,0.00,17.168,19.391
10min,FGNet,alpine,42.04,10JAN2021:07:50:00,21.4,20.6,20.3,17.6,85,17.95,29.84,4,0.9,90,2.3,0,0.00,0.00,0.00,17.546,19.373
10min,FGNet,alpine,42.04,10JAN2021:08:00:00,21.0,20.3,19.9,17.2,85,18,29.7374,6,0.5,95,2.3,0,0.00,0.00,0.00,16.61,18.1094
10min,FGNet,alpine,42.04,10JAN2021:08:10:00,20.5,19.9,19.4,16.7,85,17.99,29.8886,9,0.3,141.1,1.9,0,0.00,0.00,0.00,17.7206,18.8258
10min,FGNet,alpine,42.04,10JAN2021:08:20:00,20.4,20.1,19.7,16.9,86,17.99,29.8004,15,0.8,234.7,2.4,0,0.00,0.00,0.00,19.8824,20.4494
10min,FGNet,alpine,42.04,10JAN2021:08:30:00,20.8,20.8,20.4,17.1,86,17.98,29.9066,25,0.0,223.1,0.0,0,0.00,0.00,0.00,21.5186,21.5996
10min,FGNet,alpine,42.04,10JAN2021:08:40:00,21.6,21.8,21.7,17.7,85,18,29.804,32,1.6,97.8,3.3,0,0.00,0.00,0.00,22.3826,22.9028
10min,FGNet,alpine,42.04,10JAN2021:08:50:00,22.5,23.0,22.9,17.9,82,17.99,29.7626,44,2.2,40.41,3.1,0,0.00,0.00,0.00,23.6606,24.1484
10min,FGNet,alpine,42.04,10JAN2021:09:00:00,23.1,23.4,23.3,18.5,82,18.01,29.7734,59,0.6,231.8,1.7,0,0.00,0.00,0.00,25.2104,24.8738
10min,FGNet,alpine,42.04,10JAN2021:09:10:00,23.6,24.2,24.0,19.0,82,17.99,29.795,77,0.1,239.9,1.2,0,0.00,0.00,0.00,27.4424,26.5154
10min,FGNet,alpine,42.04,10JAN2021:09:20:00,24.3,25.0,24.9,19.0,80,18,29.849,96,1.1,162.9,2.3,0,0.00,0.00,0.00,29.777,27.0536
10min,FGNet,alpine,42.04,10JAN2021:09:30:00,24.9,25.7,25.7,18.9,78,18.03,29.8076,121,0.4,106,1.9,0,0.00,0.00,0.00,33.6956,29.5394
10min,FGNet,alpine,42.04,10JAN2021:09:40:00,25.8,26.8,26.7,18.8,74,17.97,29.732,156,0.4,120.6,1.9,0,0.00,0.00,0.00,36.8258,30.0524
10min,FGNet,alpine,42.04,10JAN2021:09:50:00,26.7,27.4,27.3,18.4,70,18,29.732,166,0.4,96.2,1.7,0,0.00,0.00,0.00,37.7276,31.9316
10min,FGNet,alpine,42.04,10JAN2021:10:00:00,27.5,27.8,27.7,18.5,69,18.04,29.6996,169,0.3,182,1.9,0,0.00,0.00,0.00,41.243,32.9882
10min,FGNet,alpine,42.04,10JAN2021:10:10:00,27.9,28.4,28.3,18.6,68,18.01,29.7194,269,1.1,293.6,3.0,0,0.00,0.00,0.00,51.278,37.0112
10min,FGNet,alpine,42.04,10JAN2021:10:20:00,28.3,29.5,29.5,17.5,63,18.04,29.7014,382,2.2,238.4,4.8,0,0.00,0.00,0.00,59.18,38.8904
10min,FGNet,alpine,42.04,10JAN2021:10:30:00,29.4,30.7,30.5,17.7,61,18.02,29.723,368,2.7,234.3,4.6,0,0.00,0.00,0.00,53.834,41.0522
10min,FGNet,alpine,42.04,10JAN2021:10:40:00,30.2,30.9,30.5,17.0,58,17.97,29.687,370,3.6,192.4,5.1,0,0.00,0.00,0.00,50.108,38.8886
10min,FGNet,alpine,42.04,10JAN2021:10:50:00,30.4,31.3,30.8,17.0,57,17.96,29.7734,384,2.9,133.6,5.5,0,0.00,0.00,0.00,52.466,41.9936
10min,FGNet,alpine,42.04,10JAN2021:11:00:00,30.8,31.4,31.2,17.6,58,17.93,29.714,397,2.5,148.2,4.2,0,0.00,0.00,0.00,56.48,40.3466
10min,FGNet,alpine,42.04,10JAN2021:11:10:00,30.7,31.1,31.4,17.7,58,17.93,29.7194,412,2.7,217.4,5.3,0,0.00,0.00,0.00,61.772,42.4508
10min,FGNet,alpine,42.04,10JAN2021:11:20:00,31.3,31.9,32.1,17.8,57,17.95,29.6276,424,2.7,173.3,4.9,0,0.00,0.00,0.00,57.992,42.8666
10min,FGNet,alpine,42.04,10JAN2021:11:30:00,31.5,32.1,32.5,17.9,57,17.94,29.6744,439,2.2,206.4,4.8,0,0.00,0.00,0.00,60.8,39.3692
10min,FGNet,alpine,42.04,10JAN2021:11:40:00,32.0,32.4,32.7,18.2,56,17.94,29.6564,449,3.4,206.7,6.2,0,0.00,0.00,0.00,52.646,40.451
10min,FGNet,alpine,42.04,10JAN2021:11:50:00,31.7,32.4,32.9,18.2,57,17.93,29.6924,464,4.4,212.5,6.7,0,0.00,0.00,0.00,54.842,41.2394
10min,FGNet,alpine,42.04,10JAN2021:12:00:00,31.9,32.9,33.3,18.1,56,17.95,29.7356,479,4.6,203.9,7.6,0,0.00,0.00,0.00,52.88,38.3108
10min,FGNet,alpine,42.04,10JAN2021:12:10:00,31.3,31.9,32.9,17.8,57,17.96,29.6006,478,4.1,254.9,5.7,0,0.00,0.00,0.00,57.164,42.0872
10min,FGNet,alpine,42.04,10JAN2021:12:20:00,31.8,32.8,33.3,17.6,55,17.95,29.669,372,2.8,202.8,5.1,0,0.00,0.00,0.00,48.038,39.5402
10min,FGNet,alpine,42.04,10JAN2021:12:30:00,31.9,32.5,32.7,18.4,57,17.93,29.6294,319,3.0,159.7,6.2,0,0.00,0.00,0.00,45.7952,39.3728
10min,FGNet,alpine,42.04,10JAN2021:12:40:00,32.1,32.5,32.7,18.1,56,17.97,29.552,245,3.8,216.8,6.2,0,0.00,0.00,0.00,38.7806,34.5398
10min,FGNet,alpine,42.04,10JAN2021:12:50:00,31.6,32.2,32.4,17.9,57,17.99,29.651,166,3.1,246.3,6.0,0,0.00,0.00,0.00,39.533,34.7576
10min,FGNet,alpine,42.04,10JAN2021:13:00:00,31.6,31.9,32.0,18.0,57,17.92,29.714,157,2.2,168.8,5.1,0,0.00,0.00,0.00,38.2568,35.1644
10min,FGNet,alpine,42.04,10JAN2021:13:10:00,31.5,31.8,31.9,18.0,57,17.98,29.678,179,3.7,233.4,8.3,0,0.00,0.00,0.00,37.0796,33.7856
10min,FGNet,alpine,42.04,10JAN2021:13:20:00,31.2,31.8,32.0,18.0,57,17.98,29.6834,188,3.2,256.2,6.0,0,0.00,0.00,0.00,41.0684,35.3768
10min,FGNet,alpine,42.04,10JAN2021:13:30:00,31.9,32.6,32.7,18.4,57,17.99,29.6726,346,2.8,207.2,5.3,0,0.00,0.00,0.00,44.6684,39.1352
10min,FGNet,alpine,42.04,10JAN2021:13:40:00,32.7,33.8,33.8,18.8,56,17.97,29.6726,468,4.5,180.4,6.2,0,0.00,0.00,0.00,49.532,39.56
10min,FGNet,alpine,42.04,10JAN2021:13:50:00,32.9,33.8,34.1,18.6,55,17.99,29.6546,440,3.8,196.4,5.1,0,0.00,0.00,0.00,52.232,40.5176
10min,FGNet,alpine,42.04,10JAN2021:14:00:00,33.9,35.1,35.3,18.9,54,17.98,29.669,432,2.2,248.7,4.0,0,0.00,0.00,0.00,52.592,40.0784
10min,FGNet,alpine,42.04,10JAN2021:14:10:00,34.0,34.5,35.2,18.6,53,18,29.7104,412,3.9,233.2,6.7,0,0.00,0.00,0.00,47.084,38.7086
10min,FGNet,alpine,42.04,10JAN2021:14:20:00,33.6,34.6,34.9,18.7,54,17.96,29.6204,395,4.1,215.4,5.8,0,0.00,0.00,0.00,49.424,40.9172
10min,FGNet,alpine,42.04,10JAN2021:14:30:00,33.8,34.6,34.6,18.5,53,17.98,29.7536,377,4.3,178.2,6.7,0,0.00,0.00,0.00,47.102,40.955
10min,FGNet,alpine,42.04,10JAN2021:14:40:00,33.9,34.5,34.6,18.5,53,17.99,29.6204,366,4.1,160.8,7.6,0,0.00,0.00,0.00,42.665,38.327
10min,FGNet,alpine,42.04,10JAN2021:14:50:00,33.9,34.5,34.8,18.6,53,17.98,29.696,347,3.7,170.2,6.5,0,0.00,0.00,0.00,45.473,36.716
10min,FGNet,alpine,42.04,10JAN2021:15:00:00,34.0,34.9,34.9,18.5,53,18.01,29.714,327,4.3,215.3,5.8,0,0.00,0.00,0.00,43.4624,36.6566
10min,FGNet,alpine,42.04,10JAN2021:15:10:00,34.6,35.4,35.4,18.7,52,17.93,29.7356,308,3.3,203.2,6.0,0,0.00,0.00,0.00,39.6788,39.2342
10min,FGNet,alpine,42.04,10JAN2021:15:20:00,34.3,35.0,35.4,18.3,52,17.98,29.696,288,2.3,209.7,4.0,0,0.00,0.00,0.00,39.254,38.525
10min,FGNet,alpine,42.04,10JAN2021:15:30:00,34.1,34.9,35.1,18.4,52,17.98,29.6834,266,3.4,254.5,5.7,0,0.00,0.00,0.00,39.8462,38.8094
10min,FGNet,alpine,42.04,10JAN2021:15:40:00,34.2,35.0,34.8,18.3,52,17.99,29.6726,241,3.2,236.3,6.4,0,0.00,0.00,0.00,40.8164,40.559
10min,FGNet,alpine,42.04,10JAN2021:15:50:00,34.7,35.0,34.7,18.4,51,17.96,29.768,213,3.0,195.3,4.8,0,0.00,0.00,0.00,39.2342,38.0912
10min,FGNet,alpine,42.04,10JAN2021:16:00:00,34.4,34.8,35.0,18.4,52,18,29.732,187,2.6,189.4,4.9,0,0.00,0.00,0.00,37.6088,38.6222
10min,FGNet,alpine,42.04,10JAN2021:16:10:00,34.7,35.2,35.1,18.6,51,17.96,29.7806,160,1.7,182.9,3.9,0,0.00,0.00,0.00,36.401,37.4324
10min,FGNet,alpine,42.04,10JAN2021:16:20:00,34.4,34.3,34.4,18.4,51,17.93,29.7374,113,4.0,210.9,5.8,0,0.00,0.00,0.00,33.6002,34.1474
10min,FGNet,alpine,42.04,10JAN2021:16:30:00,33.7,33.6,33.4,18.3,53,17.93,29.741,53,3.6,214.7,5.1,0,0.00,0.00,0.00,31.4672,32.4266
10min,FGNet,alpine,42.04,10JAN2021:16:40:00,33.1,32.8,32.6,18.7,55,17.94,29.7176,32,2.5,303.4,3.9,0,0.00,0.00,0.00,29.9246,31.6292
10min,FGNet,alpine,42.04,10JAN2021:16:50:00,32.3,32.0,31.8,19.0,58,17.99,29.732,17,2.8,250.8,5.1,0,0.00,0.00,0.00,29.0264,30.5942
10min,FGNet,alpine,42.04,10JAN2021:17:00:00,31.8,31.6,31.4,18.9,58,17.99,29.8166,11,2.3,239.9,5.1,0,0.00,0.00,0.00,25.9214,27.9518
10min,FGNet,alpine,42.04,10JAN2021:17:10:00,31.2,30.8,30.7,18.7,59,17.99,29.7734,7,0.1,138.3,1.2,0,0.00,0.00,0.00,26.5748,29.7302
10min,FGNet,alpine,42.04,10JAN2021:17:20:00,30.2,29.7,29.6,18.5,61,17.97,29.75,4,0.5,94.6,3.0,0,0.00,0.00,0.00,25.727,27.7484
10min,FGNet,alpine,42.04,10JAN2021:17:30:00,29.5,28.8,28.5,18.5,63,17.99,29.759,2,1.2,72.42,2.6,0,0.00,0.00,0.00,23.3636,25.925
10min,FGNet,alpine,42.04,10JAN2021:17:40:00,29.0,28.5,28.1,18.3,64,18.02,29.822,1,1.6,90.9,2.6,0,0.00,0.00,0.00,23.7074,25.8908
10min,FGNet,alpine,42.04,10JAN2021:17:50:00,28.4,27.5,27.2,18.2,65,18,29.7554,0,0.2,138.7,1.2,0,0.00,0.00,0.00,22.8722,25.1006
10min,FGNet,alpine,42.04,10JAN2021:18:00:00,27.7,26.8,26.6,18.2,67,18.07,29.813,0,0.4,166.9,1.9,0,0.00,0.00,0.00,20.9876,22.8344
10min,FGNet,alpine,42.04,10JAN2021:18:10:00,27.3,27.1,26.8,18.3,68,18.02,29.7734,0,1.6,59.99,3.1,0,0.00,0.00,0.00,23.3546,25.5398
10min,FGNet,alpine,42.04,10JAN2021:18:20:00,27.6,27.3,26.9,18.1,67,17.96,29.7734,0,1.9,75.16,3.7,0,0.00,0.00,0.00,22.8758,25.5794
10min,FGNet,alpine,42.04,10JAN2021:18:30:00,27.4,26.9,26.6,17.9,67,18.01,29.867,0,0.0,68.37,1.4,0,0.00,0.00,0.00,21.7544,24.1016
10min,FGNet,alpine,42.04,10JAN2021:18:40:00,26.7,25.9,25.8,17.6,68,18.02,29.8256,0,0.1,33.37,1.5,0,0.00,0.00,0.00,20.7896,23.0972
10min,FGNet,alpine,42.04,10JAN2021:18:50:00,26.0,25.0,25.1,17.3,69,18,29.8616,0,0.0,234.7,0.0,0,0.00,0.00,0.00,19.58,22.802
10min,FGNet,alpine,42.04,10JAN2021:19:00:00,25.8,25.5,25.3,17.5,70,17.97,29.7716,0,1.5,103.7,3.3,0,0.00,0.00,0.00,22.7228,24.8936
10min,FGNet,alpine,42.04,10JAN2021:19:10:00,26.0,25.7,25.4,17.5,70,17.97,29.9156,0,2.1,74.49,3.7,0,0.00,0.00,0.00,21.992,23.4032
10min,FGNet,alpine,42.04,10JAN2021:19:20:00,25.8,25.1,24.8,17.3,70,18.01,29.8346,0,2.0,61.49,2.8,0,0.00,0.00,0.00,21.2396,23.2142
10min,FGNet,alpine,42.04,10JAN2021:19:30:00,25.3,24.6,24.2,17.2,71,18.03,29.921,0,2.1,47.39,3.0,0,0.00,0.00,0.00,20.2496,22.6238
10min,FGNet,alpine,42.04,10JAN2021:19:40:00,24.7,24.1,23.9,17.0,72,18.02,29.831,0,1.5,46.36,3.1,0,0.00,0.00,0.00,18.9716,20.7662
10min,FGNet,alpine,42.04,10JAN2021:19:50:00,24.1,23.1,23.1,16.8,73,18.01,29.7896,0,0.0,86.4,0.0,0,0.00,0.00,0.00,17.7044,20.7356
10min,FGNet,alpine,42.04,10JAN2021:20:00:00,23.6,22.6,22.4,16.8,75,18,29.822,0,0.0,62.67,0.0,0,0.00,0.00,0.00,18.4226,21.281
10min,FGNet,alpine,42.04,10JAN2021:20:10:00,23.4,22.9,22.7,16.8,75,17.97,29.8814,0,1.7,79.43,4.0,0,0.00,0.00,0.00,20.6402,22.1702
10min,FGNet,alpine,42.04,10JAN2021:20:20:00,23.4,23.0,22.7,16.5,75,18.03,29.7554,0,3.2,67.54,4.0,0,0.00,0.00,0.00,20.471,21.8804
10min,FGNet,alpine,42.04,10JAN2021:20:30:00,22.9,22.3,22.0,16.2,75,18.01,29.9624,0,1.7,82.6,3.3,0,0.00,0.00,0.00,18.3164,20.6024
10min,FGNet,alpine,42.04,10JAN2021:20:40:00,22.5,21.8,21.6,16.2,76,17.99,29.8256,0,0.4,64.74,1.9,0,0.00,0.00,0.00,16.898,19.4684
10min,FGNet,alpine,42.04,10JAN2021:20:50:00,22.0,20.9,21.0,15.9,77,18,29.9174,0,0.0,34.85,0.0,0,0.00,0.00,0.00,15.458,17.294
10min,FGNet,alpine,42.04,10JAN2021:21:00:00,21.3,20.6,20.6,15.9,79,18.02,29.8886,0,1.1,66.14,2.1,0,0.00,0.00,0.00,17.15,19.1282
10min,FGNet,alpine,42.04,10JAN2021:21:10:00,21.1,20.3,20.1,15.7,79,18.04,29.966,0,0.6,60.52,2.3,0,0.00,0.00,0.00,17.006,18.8654
10min,FGNet,alpine,42.04,10JAN2021:21:20:00,20.9,20.1,19.8,15.6,80,18,29.759,0,0.3,66.4,2.1,0,0.00,0.00,0.00,16.484,18.0896
10min,FGNet,alpine,42.04,10JAN2021:21:30:00,20.8,20.1,20.0,15.5,80,18.02,29.885,0,0.5,46.1,3.0,0,0.00,0.00,0.00,17.276,18.8042
10min,FGNet,alpine,42.04,10JAN2021:21:40:00,20.3,19.7,19.4,15.2,80,18.01,29.9174,0,1.9,52.72,2.8,0,0.00,0.00,0.00,14.9,16.682
10min,FGNet,alpine,42.04,10JAN2021:21:50:00,19.8,19.1,18.7,15.0,81,18.07,29.822,0,0.0,88.7,0.0,0,0.00,0.00,0.00,14.558,15.836
10min,FGNet,alpine,42.04,10JAN2021:22:00:00,19.7,19.0,18.8,15.1,82,18.05,29.9714,0,0.0,54.99,0.0,0,0.00,0.00,0.00,15.152,16.592
10min,FGNet,alpine,42.04,10JAN2021:22:10:00,19.6,18.9,18.8,15.0,82,18.06,29.8706,0,0.2,38.41,2.1,0,0.00,0.00,0.00,16.16,17.6
10min,FGNet,alpine,42.04,10JAN2021:22:20:00,19.5,18.9,18.6,14.8,82,18.01,30.02,0,1.7,60.09,3.3,0,0.00,0.00,0.00,16.61,18.0896
10min,FGNet,alpine,42.04,10JAN2021:22:30:00,19.5,18.8,18.2,14.8,82,18.04,29.9264,0,1.4,111.2,3.5,0,0.00,0.00,0.00,15.728,17.618
10min,FGNet,alpine,42.04,10JAN2021:22:40:00,19.2,18.6,18.2,14.6,82,18.05,29.966,0,0.0,84.7,0.0,0,0.00,0.00,0.00,14.774,16.448
10min,FGNet,alpine,42.04,10JAN2021:22:50:00,19.0,18.4,18.1,14.5,83,18.08,29.957,0,0.0,63.93,0.0,0,0.00,0.00,0.00,15.512,17.078
10min,FGNet,alpine,42.04,10JAN2021:23:00:00,18.7,18.0,17.6,14.4,83,18.06,29.813,0,0.0,64.22,1.2,0,0.00,0.00,0.00,14.594,16.61
10min,FGNet,alpine,42.04,10JAN2021:23:10:00,18.5,17.8,17.4,14.3,83,18.08,29.84,0,0.0,35.82,0.0,0,0.00,0.00,0.00,14.468,16.07
10min,FGNet,alpine,42.04,10JAN2021:23:20:00,18.3,17.3,17.0,14.1,84,18.08,29.8454,0,0.0,31.96,0.0,0,0.00,0.00,0.00,14.054,15.926
10min,FGNet,alpine,42.04,10JAN2021:23:30:00,17.9,17.4,16.9,13.9,84,18.04,29.8436,0,0.1,166.8,2.4,0,0.00,0.00,0.00,14,16.07
10min,FGNet,alpine,42.04,10JAN2021:23:40:00,17.9,17.6,17.2,14.0,84,18.05,29.9066,0,0.0,130,1.9,0,0.00,0.00,0.00,15.512,17.06
10min,FGNet,alpine,42.04,10JAN2021:23:50:00,18.5,17.9,17.5,14.3,84,18.08,29.9156,0,2.0,71.28,3.1,0,0.00,0.00,0.00,14.774,15.998
10min,FGNet,genola,42.05,10JAN2021:00:00:00,27.9,28.0,28.0,20.1,72,9.03,34.6784,0,0.3,320.1,2.4,0,0.00,0.00,0.00,27.3272,27.5936
10min,FGNet,genola,42.05,10JAN2021:00:10:00,27.7,27.9,27.9,20.0,72,9.14,34.6766,0,2.1,332.7,4.4,0,0.00,0.00,0.00,27.2876,27.446
10min,FGNet,genola,42.05,10JAN2021:00:20:00,27.4,27.8,27.7,19.8,73,9.04,34.6676,0,4.2,342,4.9,0,0.00,0.00,0.00,27.4154,27.563
10min,FGNet,genola,42.05,10JAN2021:00:30:00,27.5,27.9,27.9,19.7,72,9.02,34.6658,0,5.1,331.7,7.1,0,0.00,0.00,0.00,27.752,27.86
10min,FGNet,genola,42.05,10JAN2021:00:40:00,27.9,28.4,28.4,19.8,71,9.07,34.6622,0,5.5,267.2,7.1,0,0.00,0.00,0.00,28.1768,28.355
10min,FGNet,genola,42.05,10JAN2021:00:50:00,28.4,28.8,28.7,20.0,70,9.06,34.6586,0,5.9,309.6,7.8,0,0.00,0.00,0.00,28.6322,28.7492
10min,FGNet,genola,42.05,10JAN2021:01:00:00,28.7,29.1,29.0,20.0,69,9.1,34.6568,0,6.0,352.8,7.3,0,0.00,0.00,0.00,28.6322,28.868
10min,FGNet,genola,42.05,10JAN2021:01:10:00,28.7,29.1,29.0,20.1,70,9.06,34.655,0,5.7,337.8,7.3,0,0.00,0.00,0.00,28.8284,28.9472
10min,FGNet,genola,42.05,10JAN2021:01:20:00,28.8,29.1,29.1,20.1,70,9.02,34.655,0,6.3,341,9.2,0,0.00,0.00,0.00,28.553,28.7096
10min,FGNet,genola,42.05,10JAN2021:01:30:00,28.3,28.5,28.5,19.8,70,9.06,34.646,0,6.6,327,8.2,0,0.00,0.00,0.00,27.851,28.0184
10min,FGNet,genola,42.05,10JAN2021:01:40:00,27.9,28.3,28.2,19.9,72,9.01,34.6388,0,6.2,341.4,7.8,0,0.00,0.00,0.00,27.959,28.0778
10min,FGNet,genola,42.05,10JAN2021:01:50:00,28.0,28.4,28.3,20.0,72,9.1,34.6388,0,5.7,336.9,7.8,0,0.00,0.00,0.00,27.851,28.0778
10min,FGNet,genola,42.05,10JAN2021:02:00:00,27.8,28.0,28.0,20.0,72,9.07,34.6352,0,4.3,332.3,6.4,0,0.00,0.00,0.00,27.464,27.563
10min,FGNet,genola,42.05,10JAN2021:02:10:00,27.4,27.7,27.7,20.2,74,9.05,34.6352,0,3.5,313.6,4.8,0,0.00,0.00,0.00,27.1292,27.3668
10min,FGNet,genola,42.05,10JAN2021:02:20:00,27.4,27.8,27.7,20.2,74,9.08,34.6334,0,4.4,311.3,6.4,0,0.00,0.00,0.00,28.0382,28.1174
10min,FGNet,genola,42.05,10JAN2021:02:30:00,28.1,28.6,28.5,20.0,71,9.04,34.6298,0,4.1,342.9,5.8,0,0.00,0.00,0.00,27.8798,28.157
10min,FGNet,genola,42.05,10JAN2021:02:40:00,28.1,28.2,28.1,20.2,72,9.08,34.628,0,2.3,311.5,3.7,0,0.00,0.00,0.00,27.2084,27.446
10min,FGNet,genola,42.05,10JAN2021:02:50:00,27.5,27.8,27.7,20.2,74,9.04,34.628,0,1.5,324.5,3.0,0,0.00,0.00,0.00,27.0086,27.2084
10min,FGNet,genola,42.05,10JAN2021:03:00:00,27.4,27.6,27.6,20.2,74,9.12,34.628,0,1.0,319.4,2.6,0,0.00,0.00,0.00,26.5334,27.0086
10min,FGNet,genola,42.05,10JAN2021:03:10:00,27.3,27.5,27.4,20.4,75,9.06,34.628,0,1.9,140.7,4.0,0,0.00,0.00,0.00,26.9798,27.3758
10min,FGNet,genola,42.05,10JAN2021:03:20:00,27.5,27.8,27.6,20.3,74,9.01,34.628,0,2.7,111.3,3.5,0,0.00,0.00,0.00,26.9708,27.2876
10min,FGNet,genola,42.05,10JAN2021:03:30:00,27.4,27.5,27.5,20.6,75,9.09,34.628,0,2.5,85.1,3.7,0,0.00,0.00,0.00,26.7728,27.1688
10min,FGNet,genola,42.05,10JAN2021:03:40:00,27.2,27.5,27.4,20.5,76,9.05,34.628,0,1.5,108.6,3.5,0,0.00,0.00,0.00,26.7746,27.4082
10min,FGNet,genola,42.05,10JAN2021:03:50:00,27.4,27.4,27.3,20.6,75,9.08,34.628,0,0.0,137.6,0.0,0,0.00,0.00,0.00,26.438,26.8556
10min,FGNet,genola,42.05,10JAN2021:04:00:00,27.1,27.2,27.1,20.6,76,9.1,34.628,0,1.0,310.4,2.8,0,0.00,0.00,0.00,26.222,26.5388
10min,FGNet,genola,42.05,10JAN2021:04:10:00,26.8,27.0,26.9,20.6,77,9.08,34.628,0,1.0,321.7,2.4,0,0.00,0.00,0.00,26.1446,26.3642
10min,FGNet,genola,42.05,10JAN2021:04:20:00,26.7,27.0,26.9,20.5,77,9.1,34.628,0,2.4,328,3.3,0,0.00,0.00,0.00,26.4632,26.6216
10min,FGNet,genola,42.05,10JAN2021:04:30:00,26.8,27.2,27.1,20.2,76,9.07,34.628,0,2.5,325.3,3.9,0,0.00,0.00,0.00,26.5442,26.7818
10min,FGNet,genola,42.05,10JAN2021:04:40:00,26.8,27.0,27.0,20.3,76,9.05,34.628,0,1.8,313.1,3.1,0,0.00,0.00,0.00,26.2274,26.4254
10min,FGNet,genola,42.05,10JAN2021:04:50:00,26.5,26.8,26.7,20.4,77,9.06,34.628,0,2.3,306.7,3.5,0,0.00,0.00,0.00,25.8494,26.1878
10min,FGNet,genola,42.05,10JAN2021:05:00:00,26.4,26.6,26.6,20.6,78,9.08,34.628,0,2.1,329.7,2.8,0,0.00,0.00,0.00,25.7108,26.1086
10min,FGNet,genola,42.05,10JAN2021:05:10:00,26.3,26.5,26.4,20.6,79,9.11,34.6262,0,0.0,278.7,1.4,0,0.00,0.00,0.00,25.1456,25.871
10min,FGNet,genola,42.05,10JAN2021:05:20:00,26.1,26.1,26.0,20.5,79,9.1,34.6262,0,0.0,214.7,0.0,0,0.00,0.00,0.00,24.8288,25.4768
10min,FGNet,genola,42.05,10JAN2021:05:30:00,25.8,25.8,25.7,20.3,79,9.08,34.6262,0,0.0,141.1,0.0,0,0.00,0.00,0.00,24.4814,25.1204
10min,FGNet,genola,42.05,10JAN2021:05:40:00,25.5,25.6,25.5,20.2,80,8.95,34.5776,0,0.0,141.2,0.0,0,0.00,0.00,0.00,23.7236,24.5228
10min,FGNet,genola,42.05,10JAN2021:05:50:00,25.2,25.3,25.2,20.1,81,9.15,34.6208,0,0.0,292.3,0.0,0,0.00,0.00,0.00,23.3618,24.0026
10min,FGNet,genola,42.05,10JAN2021:06:00:00,25.1,25.1,24.8,20.2,82,9.07,34.6208,0,0.0,176.1,0.0,0,0.00,0.00,0.00,23.3636,23.8532
10min,FGNet,genola,42.05,10JAN2021:06:10:00,25.1,25.1,24.5,20.4,82,9.06,34.6154,0,0.0,313,0.0,0,0.00,0.00,0.00,22.64,23.504
10min,FGNet,genola,42.05,10JAN2021:06:20:00,25.0,24.9,24.3,20.5,83,9.1,34.6136,0,2.4,227.9,3.1,0,0.00,0.00,0.00,21.6734,23.1224